Theta_e
299 299 299 299 299 299 300 302 302 301 302 304 302 306 305 303 302 301 302 301 302 303 303 305 307 309 308 308 309 309 308 313 314 313 313 314 317 318 317 321 322 322 319 320
299 298 298 298 297 298 300 300 301 301 302 304 304 305 306 305 305 304 304 304 303 303 303 305 307 307 308 307 308 310 307 310 307 309 313 312 314 312 312 312 314 316 317 320
297 298 298 297 296 296 299 298 299 298 300 301 303 304 304 305 304 304 304 304 303 303 304 303 305 306 307 309 307 308 307 307 308 309 307 305 307 311 311 312 311 311 312 309
297 296 295 296 296 297 297 294 297 297 300 301 302 302 302 302 303 304 303 303 303 304 304 303 303 305 306 307 308 307 306 306 307 308 307 307 305 303 304 306 306 307 305 304
296 296 296 296 295 296 296 293 293 295 297 298 300 301 304 303 303 304 304 304 303 302 304 304 304 305 305 306 306 307 306 306 305 305 304 304 304 303 302 303 303 303 303 303
295 295 295 295 295 295 295 294 294 295 293 292 295 295 299 301 302 302 302 303 303 304 304 304 303 304 305 305 305 305 306 306 309 308 306 305 302 305 304 302 304 305 306 305
294 295 295 295 294 295 295 294 294 294 293 293 294 295 296 297 298 300 301 302 303 302 302 303 303 304 304 303 304 304 304 304 305 308 308 306 303 304 304 304 305 303 302 302
294 295 295 294 294 294 295 294 295 289 290 294 294 295 297 298 298 300 300 300 302 302 303 303 304 301 302 302 302 303 303 304 305 307 307 305 302 301 301 300 301 302 302 304
294 294 294 294 294 294 295 294 294 294 292 291 294 295 295 295 298 300 301 301 302 302 301 301 301 300 300 299 301 301 301 302 302 305 304 302 299 301 302 301 301 303 304 304
294 294 294 294 293 293 295 294 294 294 294 293 294 295 297 299 303 301 302 303 303 299 298 300 300 300 299 299 299 299 300 300 302 302 302 302 302 303 303 302 299 305 306 306
294 294 294 293 294 294 295 295 294 294 294 294 296 298 298 300 300 301 301 301 300 299 299 298 295 298 297 297 298 298 299 297 299 304 304 302 303 301 302 303 303 304 304 306
293 293 293 294 294 295 295 293 294 293 293 295 295 297 298 296 296 298 297 300 300 299 299 298 295 297 293 296 298 297 298 297 299 299 299 301 301 302 302 303 304 305 304 304
293 293 293 294 294 294 294 295 293 292 293 294 294 295 295 297 297 297 298 299 299 298 297 293 292 295 294 296 296 297 297 297 297 298 298 299 299 300 303 303 302 305 306 305
293 293 292 293 293 293 294 294 293 294 294 292 292 296 294 294 295 296 297 297 296 297 297 295 296 296 294 294 294 295 294 296 297 297 297 298 299 300 301 301 303 304 304 305
292 292 293 292 293 293 293 294 293 294 295 293 289 292 294 295 295 295 296 295 294 296 298 298 297 295 296 294 294 293 295 295 294 294 295 297 298 298 300 302 303 303 304 303
291 291 290 290 292 293 292 284 294 294 294 289 291 290 293 295 296 296 294 293 293 292 293 292 295 296 295 295 293 294 294 295 295 296 296 297 297 297 298 302 301 303 302 298
291 291 291 291 293 293 290 288 294 294 294 288 291 289 292 296 295 293 294 293 292 292 292 292 293 294 294 290 296 295 295 295 295 295 296 296 298 298 301 301 302 302 298 296
291 291 291 292 292 293 292 292 293 294 294 293 292 291 290 294 290 291 293 290 292 291 291 291 292 292 293 295 294 295 295 295 296 296 296 296 296 297 300 299 298 296 296 295
291 292 292 291 292 292 292 292 292 293 293 294 292 292 289 294 292 293 293 294 291 292 291 292 295 293 296 295 294 294 294 295 295 297 300 299 299 299 300 298 297 296 293 293
292 291 291 291 291 292 293 294 293 293 293 292 295 291 291 292 290 288 295 297 297 294 294 293 295 296 295 294 295 295 295 295 295 299 299 299 298 299 299 298 298 295 291 290
291 291 291 293 292 293 294 293 294 292 292 292 293 292 293 294 293 294 295 298 295 296 296 296 297 297 298 299 295 295 296 296 296 298 298 298 298 299 297 298 296 292 291 290
292 293 293 294 294 295 295 294 293 294 295 294 294 293 291 291 297 293 299 299 298 299 297 298 297 299 299 298 298 298 297 298 298 296 295 295 298 298 298 295 292 291 291 288
292 293 294 296 295 297 296 294 296 296 295 295 295 294 293 296 297 297 299 297 297 298 298 295 297 298 298 297 296 294 294 294 293 294 296 295 297 298 297 294 292 291 290 287
295 296 296 295 297 296 297 297 295 295 294 295 295 296 296 297 299 298 299 298 296 299 295 297 299 296 294 293 292 293 292 293 293 294 295 295 296 296 295 293 291 290 286 285
296 297 298 297 295 295 295 296 296 297 298 298 296 295 296 297 295 296 296 296 300 298 300 300 297 294 291 292 291 292 293 293 293 293 294 294 293 293 292 291 290 287 283 282
296 297 299 296 296 299 295 295 297 299 298 298 297 297 295 299 300 300 298 300 299 299 297 294 292 291 290 291 291 291 292 292 292 292 291 290 290 289 286 285 284 284 283 280
297 295 293 294 294 295 295 297 296 295 298 297 298 296 298 295 298 301 299 298 298 296 294 291 290 289 289 289 289 289 290 290 289 289 288 287 285 283 283 281 279 281 281 282
Wind_Speed
15 14 12 11 10 8 8 5 4 4 13 5 3 5 7 8 17 6 8 10 8 5 4 7 4 6 4 3 0 2 0 2 4 6 6 2 5 2 1 3 2 3 5 3
12 12 11 9 8 8 6 2 2 4 7 6 10 5 13 8 12 4 4 6 5 3 3 4 3 3 2 6 5 3 2 2 4 6 3 5 7 3 2 4 2 2 3 2
14 13 12 10 9 10 9 2 2 2 2 6 10 8 8 9 13 16 12 10 10 12 11 7 6 5 4 2 4 9 4 4 7 9 3 2 2 4 6 6 2 2 5 15
13 12 11 9 9 9 9 2 4 2 2 4 11 14 9 15 17 17 11 6 16 14 8 11 10 3 3 2 7 1 1 6 5 10 10 9 10 8 8 9 11 8 15 14
14 13 11 11 10 10 6 4 2 2 5 6 6 7 6 15 17 4 11 13 16 15 14 14 9 3 3 1 3 2 4 3 2 8 15 7 9 10 9 7 9 10 11 11
14 14 13 11 11 12 4 3 3 1 3 1 1 3 5 8 14 12 18 22 17 15 13 7 5 7 4 5 4 0 3 1 2 5 9 3 5 10 9 4 4 6 6 11
13 13 13 13 13 15 11 7 5 3 5 6 5 8 13 16 15 18 21 15 18 16 5 4 4 4 8 7 7 9 6 3 2 3 5 5 6 3 3 6 4 5 5 10
10 12 12 14 15 16 18 13 5 2 4 6 9 13 13 13 15 20 22 21 18 7 5 3 4 3 2 6 11 12 8 5 3 3 5 6 10 1 1 2 6 8 6 9
13 14 14 15 16 16 16 17 17 4 2 6 12 11 14 14 12 15 17 17 13 6 3 3 5 4 5 5 4 16 11 5 4 4 4 4 7 3 4 4 9 6 8 7
11 12 13 14 14 14 16 12 22 6 4 7 9 9 8 5 5 4 2 5 6 8 4 3 3 3 5 5 5 4 5 3 10 7 6 5 2 4 4 3 7 4 4 8
10 12 13 13 13 12 18 11 18 14 5 10 10 7 6 4 4 3 1 3 2 2 2 3 4 3 5 3 3 5 5 5 4 3 4 6 2 6 1 3 3 3 6 5
7 7 10 12 12 14 14 6 10 25 4 4 16 18 15 7 18 5 2 2 3 2 2 3 3 2 1 4 3 2 3 5 4 7 5 5 3 4 3 2 4 6 7 7
4 5 6 8 9 12 12 2 4 5 2 3 5 7 20 17 16 4 3 2 2 1 1 3 2 2 3 3 4 2 2 2 3 2 3 5 4 5 5 5 5 8 6 6
5 6 6 5 7 8 10 8 6 5 2 1 5 5 6 12 9 6 3 2 4 4 2 2 1 1 3 3 4 5 5 2 3 5 5 7 8 5 3 6 6 4 5 7
5 5 5 4 4 4 6 10 11 9 1 2 4 14 16 7 11 9 10 5 2 3 0 0 2 2 1 2 1 3 4 6 4 6 6 6 6 7 7 7 8 8 7 9
6 5 5 5 4 3 2 3 2 4 3 2 4 5 4 6 6 6 3 3 3 3 4 3 3 5 4 3 4 4 8 7 8 12 8 11 12 14 14 8 8 5 7 6
8 7 7 6 6 7 3 3 2 9 5 2 5 4 4 4 2 1 2 2 3 3 3 4 3 3 2 2 13 7 7 8 11 10 9 7 10 6 6 7 6 5 7 12
8 6 5 6 6 7 9 19 12 5 2 1 2 4 4 2 1 1 1 1 1 1 4 1 3 1 3 8 8 14 18 18 16 17 12 14 7 6 6 4 5 10 10 11
5 6 4 4 4 4 6 8 9 9 3 2 3 2 3 2 1 1 2 2 0 1 3 3 4 3 7 11 14 15 15 16 15 6 4 4 7 7 7 7 7 10 8 9
7 3 1 3 7 8 15 4 2 2 4 3 4 2 3 3 1 2 1 1 2 2 4 2 4 6 17 15 16 12 13 13 10 7 3 9 8 8 9 10 8 9 10 10
4 3 3 3 14 9 2 3 4 3 3 4 4 8 7 2 3 3 3 2 2 2 3 4 3 3 3 14 16 16 13 8 7 10 12 11 8 12 10 10 11 10 14 13
11 5 4 6 4 3 4 4 3 5 4 3 3 4 5 2 2 2 3 2 3 5 3 2 3 1 9 11 13 10 4 4 8 12 15 13 10 12 12 11 12 15 19 20
5 3 3 3 3 5 5 7 4 3 3 3 3 1 4 3 2 2 2 3 4 1 2 3 2 3 5 8 8 10 10 10 9 10 9 9 15 18 15 11 18 21 19 22
3 4 5 5 4 5 5 4 4 5 3 3 4 3 3 3 4 2 2 3 2 2 2 3 1 2 5 5 6 7 9 9 8 9 3 11 15 12 15 18 22 22 18 22
3 4 5 6 4 3 3 3 2 3 4 2 2 2 3 2 1 3 0 3 3 3 3 1 1 2 4 7 9 8 8 6 5 6 5 8 10 11 11 16 18 19 21 21
3 5 3 2 1 2 3 2 3 2 2 1 1 3 2 3 3 3 5 2 4 1 0 1 1 3 4 5 6 5 6 5 3 4 5 8 8 9 11 16 19 21 26 24
3 3 2 2 3 4 3 0 3 2 2 3 2 4 7 1 2 3 1 2 0 1 1 0 1 2 4 6 5 4 4 3 3 4 7 8 14 17 15 9 9 20 23 27
Wind_Direction
238 237 236 237 240 216 205 163 233 172 175 195 228 216 211 221 261 245 239 235 240 234 279 285 271 227 203 329 247 37 330 217 272 243 253 52 63 340 75 244 78 320 282 196
226 230 227 220 218 191 168 221 266 231 170 234 234 211 220 239 259 209 219 210 191 196 262 281 246 260 201 204 199 205 198 32 329 315 37 58 79 113 230 141 272 143 329 30
230 223 224 223 212 191 189 134 262 270 212 231 242 272 251 252 250 258 244 262 268 272 265 244 272 247 278 274 228 152 118 186 190 246 207 57 237 207 234 204 154 186 216 278
223 223 217 208 204 189 177 148 229 248 258 238 231 245 252 251 266 239 265 239 236 237 252 258 243 291 272 234 319 219 132 215 201 258 264 241 242 257 230 210 257 269 273 267
224 217 207 207 207 193 188 153 177 237 269 305 273 274 212 238 246 282 241 240 243 249 245 237 254 162 195 148 49 12 332 254 44 267 263 267 281 275 272 266 259 252 259 263
225 220 214 211 207 193 176 157 204 140 252 237 327 226 289 300 307 257 249 263 267 279 243 204 205 185 178 173 143 136 204 180 67 266 256 322 313 240 232 188 230 233 254 274
219 216 217 222 221 210 195 185 152 196 261 223 234 273 275 275 277 279 271 263 265 249 97 72 83 193 220 212 214 166 184 166 158 272 304 211 245 259 273 232 238 274 307 299
223 224 234 238 235 225 218 215 204 165 252 242 257 266 270 268 282 269 259 253 239 151 118 135 240 170 200 242 226 205 198 157 179 235 242 273 295 6 124 24 299 312 300 307
238 241 242 242 241 234 218 220 221 228 263 243 239 262 256 255 264 286 255 246 163 133 146 180 178 178 174 194 241 216 209 211 176 152 242 247 272 68 100 22 304 43 349 317
248 245 243 241 240 232 217 217 216 206 242 248 246 245 268 299 268 266 265 146 155 139 200 142 157 194 181 196 206 172 156 167 212 226 238 258 298 350 323 180 265 9 357 325
252 244 242 241 239 224 202 212 211 210 244 266 245 218 233 253 237 273 251 154 118 104 130 119 210 152 205 189 224 184 162 141 175 170 222 254 276 336 14 225 284 243 273 263
244 238 231 227 216 201 201 222 237 233 225 275 303 274 246 200 252 252 42 8 65 189 112 199 144 153 102 159 229 160 213 188 185 166 208 226 274 236 279 248 267 285 246 238
212 199 203 210 202 186 184 201 284 193 232 243 246 247 267 236 248 273 102 294 206 308 150 151 167 182 128 164 225 174 304 248 191 111 220 206 262 286 225 210 263 313 251 177
182 181 184 193 205 210 218 244 290 254 283 224 276 311 300 304 293 258 221 181 60 76 46 75 130 189 164 203 202 177 195 98 198 260 290 275 257 234 290 273 279 266 210 192
163 164 170 180 200 211 239 265 272 276 266 282 279 306 283 290 251 233 214 194 127 119 322 167 232 262 94 250 70 227 180 193 177 256 217 235 242 256 247 239 244 257 207 202
195 198 198 207 213 241 298 2 53 287 235 48 303 288 270 266 233 211 201 189 156 146 160 204 212 215 158 209 236 224 223 223 220 257 244 241 254 266 271 232 246 228 211 199
218 226 235 234 222 212 171 196 320 336 157 80 302 306 276 295 185 75 130 152 184 156 192 214 202 235 163 218 251 234 232 247 259 254 258 271 252 238 226 221 241 240 159 147
223 227 242 253 243 237 251 238 246 307 123 183 261 271 342 21 17 319 186 152 99 245 201 355 189 259 195 251 238 232 239 243 248 247 239 238 237 203 219 159 139 135 144 140
208 168 194 249 216 218 231 224 209 207 190 263 208 207 252 1 249 229 356 125 11 271 204 218 163 211 226 230 224 231 230 224 234 210 189 198 222 228 216 158 161 145 142 148
198 240 203 243 218 160 133 133 154 203 197 231 241 190 257 123 187 283 96 186 210 244 235 121 212 246 250 249 236 232 227 228 220 209 281 245 242 202 190 179 165 164 152 142
191 209 224 248 153 155 187 177 202 170 236 221 234 205 222 216 136 198 200 221 227 247 238 181 238 257 301 327 240 232 236 233 208 214 221 211 197 185 177 174 173 157 154 155
199 199 176 154 194 200 195 181 199 204 234 202 199 211 180 240 156 133 192 242 190 255 116 215 261 284 358 358 9 17 18 343 269 239 233 231 182 186 186 171 164 161 157 148
178 213 183 193 189 228 199 195 207 213 210 211 168 157 136 146 170 200 223 199 230 73 184 228 236 356 354 344 350 344 343 334 314 299 262 198 190 176 171 160 158 158 156 156
194 185 198 200 206 234 210 206 205 221 199 180 141 129 157 182 179 202 244 227 87 255 269 252 238 343 338 335 344 339 333 336 326 320 318 162 156 157 154 157 159 158 153 156
230 180 224 215 239 252 237 199 296 272 160 160 91 56 131 169 186 197 347 316 242 200 232 220 59 3 336 346 344 336 332 336 352 356 59 105 124 134 132 146 152 151 143 151
237 210 247 268 252 290 320 356 280 258 105 69 75 155 132 194 217 177 216 216 229 258 189 279 349 343 348 334 332 330 320 327 2 44 67 89 103 118 118 125 144 153 159 160
239 253 214 186 239 251 255 316 258 303 117 182 161 169 210 128 218 208 194 224 45 3 320 134 309 300 320 308 301 308 317 352 45 72 80 97 115 123 123 125 135 162 172 177